[[{"header":{"parameterUnit":"m.s-1","parameterCategory":2,"la1":30.2991,"la2":30.254,"lo1":-89.0895,"lo2":-89.0444,"dy":0.0017,"dx":0.0017,"nx":28,"ny":28,"refTime":"2025-03-12T21:00:00:Z","depth":"0","parameterNumber":2,"parameterNumberName":"U-component_of_CURRENTS"},"data":[0,0,0,0,0,0,0,0,0,0,0,0,0,0,0,0,0,0,0,0,0,0,0,0,0,0,0,0,0,0,0,0,0,0,0,0,0,0,0,0,0,0,0,0,0,0,0,0,0,0,0,0,0,0,0,0,0,0,-0.1723,-0.1726,0,-0.1897,-0.1898,-0.1899,-0.1908,-0.1906,-0.1905,-0.1904,-0.1847,-0.1847,-0.1846,0,0,0,0,0,0,0,0,0,0,0,0,0,-0.1396,-0.1401,-0.1723,-0.1726,-0.1729,-0.1897,-0.1898,-0.19,-0.1908,-0.1906,-0.1905,-0.1904,-0.1847,-0.1847,-0.1846,0,0,0,0,0,0,0,0,0,0,0,0,0,-0.1541,-0.1403,-0.1723,-0.1761,-0.1767,-0.1897,-0.1898,-0.19,-0.1908,-0.1906,-0.1905,-0.1903,-0.1847,-0.1847,-0.1846,-0.1875,0,0,-0.1844,-0.1843,0,0,0,0,0,0,0,0,-0.1533,-0.1552,-0.1752,-0.1759,-0.1766,-0.1888,-0.1763,-0.1884,-0.1909,-0.1844,-0.1904,-0.1902,-0.1847,-0.1846,-0.1872,-0.1872,-0.187,-0.1844,-0.1843,-0.1843,-0.1843,0,0,0,0,0,0,0,-0.1523,-0.1545,-0.1782,-0.1756,-0.1764,-0.177,-0.1787,-0.1786,-0.184,-0.1849,-0.1853,-0.1889,-0.1847,-0.1873,-0.187,-0.1869,-0.1844,-0.1843,-0.1843,-0.1842,-0.188,-0.1881,0,0,0,0,0,0,-0.1525,-0.1536,-0.1776,-0.1788,-0.1654,-0.1778,-0.1797,-0.1842,-0.1846,-0.185,-0.189,-0.1889,-0.1875,-0.1871,-0.1868,-0.1837,-0.1843,-0.1842,-0.1842,-0.1878,-0.188,-0.1882,0,0,0,0,0,0,-0.1517,-0.1545,-0.177,-0.1672,-0.1703,-0.1786,-0.1836,-0.1847,-0.1864,-0.1881,-0.1878,-0.1896,-0.1873,-0.1869,-0.1873,-0.1837,-0.1842,-0.1841,-0.1877,-0.1879,-0.1881,-0.1817,0,0,0,0,0,0,-0.1507,-0.1541,-0.1549,-0.1673,-0.1709,-0.181,-0.1839,-0.1852,-0.1894,-0.1893,-0.1886,-0.188,-0.1871,-0.1875,-0.1873,-0.1836,-0.1841,-0.1875,-0.1878,-0.188,-0.1817,-0.1817,-0.1816,0,0,0,0,0,-0.1495,-0.1493,-0.1548,-0.1577,-0.1725,-0.181,-0.1825,-0.1872,-0.1896,-0.1884,-0.1911,-0.1879,-0.189,-0.1876,-0.1873,-0.1834,-0.1873,-0.1877,-0.188,-0.1817,-0.1817,-0.1816,0,0,0,0,0,0,-0.1348,-0.15,-0.1561,-0.1606,-0.1696,-0.1814,-0.1803,-0.1873,-0.1893,-0.1879,-0.1901,-0.1897,-0.1893,-0.1892,-0.1877,-0.1863,-0.1875,-0.1878,-0.1829,-0.1828,-0.1827,-0.1713,-0.184,0,0,0,0,0,-0.1332,-0.136,-0.1522,-0.1547,-0.159,-0.1707,-0.1743,-0.1795,-0.1852,-0.1859,-0.1877,-0.1892,-0.1911,-0.189,-0.1907,-0.1889,-0.1879,-0.1869,-0.1868,-0.1867,-0.1779,-0.1805,-0.1797,-0.1892,-0.1892,-0.1892,0,0,-0.1284,-0.1367,-0.1385,-0.1517,-0.1581,-0.1603,-0.1717,-0.1764,-0.1759,-0.1846,-0.1817,-0.1895,-0.1918,-0.1909,-0.1903,-0.189,-0.1846,-0.1871,-0.1869,-0.1779,-0.1807,-0.1797,-0.1788,-0.1894,-0.1894,-0.1893,0,0,-0.1188,-0.1276,-0.127,-0.133,-0.1441,-0.1512,-0.1528,-0.1658,-0.1678,-0.1709,-0.1782,-0.1838,-0.1846,-0.1867,-0.1875,-0.1881,-0.1863,-0.1903,-0.1767,-0.1797,-0.1787,-0.1778,-0.1782,-0.1773,-0.1876,-0.1875,-0.1875,0,-0.1129,-0.117,-0.1275,-0.1278,-0.1317,-0.1461,-0.1465,-0.1494,-0.1606,-0.163,-0.1665,-0.1763,-0.1806,-0.18,-0.1807,-0.1866,-0.1873,-0.1763,-0.1789,-0.178,-0.1771,-0.1777,-0.1768,-0.1873,-0.1873,-0.1873,-0.1874,0,-0.1047,-0.107,-0.1059,-0.1114,-0.1146,-0.1179,-0.1265,-0.1294,-0.1366,-0.1429,-0.1477,-0.1577,-0.1629,-0.1679,-0.1725,-0.1708,-0.1733,-0.1806,-0.1772,-0.1756,-0.1766,-0.1758,-0.1869,-0.187,-0.1871,-0.1871,0,0,-0.0995,-0.101,-0.1013,-0.103,-0.1085,-0.1131,-0.1081,-0.1146,-0.1168,-0.1224,-0.1246,-0.131,-0.1411,-0.1428,-0.1541,-0.1546,-0.1545,-0.1622,-0.1625,-0.1587,-0.158,-0.1511,-0.1497,-0.1628,-0.1625,-0.1624,-0.1619,0,-0.0935,-0.0911,-0.0924,-0.0898,-0.0919,-0.0984,-0.0955,-0.0999,-0.1062,-0.1105,-0.1173,-0.1241,-0.1297,-0.1382,-0.1377,-0.1539,-0.1514,-0.1535,-0.1627,-0.1627,-0.1539,-0.1481,-0.14,-0.1379,-0.1611,-0.161,-0.1609,0,-0.0891,-0.0896,-0.0858,-0.0876,-0.0892,-0.0866,-0.0917,-0.0912,-0.0946,-0.0999,-0.1016,-0.1106,-0.1123,-0.1211,-0.1281,-0.1296,-0.138,-0.1469,-0.1475,-0.1396,-0.154,-0.1431,-0.1356,-0.1353,-0.1596,-0.1597,-0.1598,0,-0.0883,-0.0867,-0.0847,-0.0848,-0.0862,-0.0848,-0.0857,-0.0888,-0.0911,-0.0936,-0.0981,-0.0992,-0.1066,-0.1107,-0.1251,-0.1281,-0.1334,-0.1433,-0.1414,-0.1413,-0.1341,-0.1335,-0.1222,-0.142,-0.142,-0.142,-0.142,0,-0.0858,-0.0849,-0.0847,-0.0844,-0.0835,-0.0846,-0.0842,-0.0859,-0.0889,-0.0907,-0.0935,-0.0971,-0.1047,-0.1103,-0.119,-0.1242,-0.1281,-0.1317,-0.138,-0.1324,-0.1316,-0.1309,-0.1345,-0.142,-0.142,-0.142,-0.142,0,-0.0832,-0.0834,-0.0817,-0.0823,-0.0823,-0.0812,-0.0811,-0.0824,-0.0867,-0.0886,-0.0891,-0.0955,-0.1005,-0.1063,-0.1182,-0.1198,-0.1237,-0.1281,-0.1179,-0.1225,-0.1161,-0.1197,-0.1109,-0.108,-0.1216,-0.1214,-0.1212,0,-0.0807,-0.0797,-0.0788,-0.0776,-0.0764,-0.0757,-0.0752,-0.0788,-0.0802,-0.0886,-0.0893,-0.0948,-0.0977,-0.1057,-0.1066,-0.1102,-0.1175,-0.1074,-0.1086,-0.1056,-0.1149,-0.1196,-0.1182,-0.1002,-0.0998,-0.0996,-0.0994,0,-0.0752,-0.0746,-0.0731,-0.0716,-0.0698,-0.0681,-0.068,-0.0692,-0.0748,-0.079,-0.0859,-0.09,-0.094,-0.0918,-0.093,-0.0964,-0.101,-0.1015,-0.1027,-0.094,-0.0941,-0.098,-0.1107,-0.0969,-0.0971,-0.0973,-0.0974,-0.0975,-0.0699,-0.0669,-0.0654,-0.0634,-0.0622,-0.0597,-0.0553,-0.0581,-0.0599,-0.0607,-0.0737,-0.0696,-0.0762,-0.0742,-0.0786,-0.0753,-0.0835,-0.0772,-0.0814,-0.0861,-0.0805,-0.0828,-0.0742,-0.0743,-0.0744,-0.0745,-0.0746,0,-0.063,-0.0603,-0.0576,-0.0543,-0.0515,-0.0526,-0.05,-0.0444,-0.0426,-0.0405,-0.0438,-0.037,-0.0437,-0.05,-0.0563,-0.0575,-0.0594,-0.0594,-0.0649,-0.0645,-0.0692,-0.0652,-0.0489,-0.0489,-0.0489,-0.0489,-0.0489,-0.0489,-0.0595,-0.0546,-0.0533,-0.0455,-0.043,-0.0352,-0.0314,-0.0238,-0.0169,-0.0034,0.0088,0.0118,-0.0068,-0.038,-0.0517,-0.0518,-0.0549,-0.052,-0.0576,-0.0627,-0.0648,-0.0668,-0.0635,-0.0472,-0.0472,-0.0487,-0.0487,-0.0487]},{"header":{"parameterUnit":"m.s-1","parameterCategory":2,"la1":30.2991,"la2":30.254,"lo1":-89.0895,"lo2":-89.0444,"dy":0.0017,"dx":0.0017,"nx":28,"ny":28,"refTime":"2025-03-12T21:00:00:Z","depth":"0","parameterNumber":3,"parameterNumberName":"V-component_of_CURRENTS"},"data":[0,0,0,0,0,0,0,0,0,0,0,0,0,0,0,0,0,0,0,0,0,0,0,0,0,0,0,0,0,0,0,0,0,0,0,0,0,0,0,0,0,0,0,0,0,0,0,0,0,0,0,0,0,0,0,0,0,0,0.0305,0.0304,0,0.0262,0.0262,0.0262,0.0264,0.0264,0.0264,0.0264,0.0332,0.0333,0.0335,0,0,0,0,0,0,0,0,0,0,0,0,0,0.0421,0.0419,0.0305,0.0304,0.0303,0.0262,0.0262,0.0262,0.0264,0.0264,0.0264,0.0265,0.0331,0.0333,0.0335,0,0,0,0,0,0,0,0,0,0,0,0,0,0.0378,0.0419,0.0305,0.0296,0.0295,0.0262,0.0262,0.0262,0.0264,0.0264,0.0264,0.0265,0.033,0.0333,0.0335,0.0343,0,0,0.0342,0.0343,0,0,0,0,0,0,0,0,0.038,0.0374,0.0298,0.0297,0.0295,0.0265,0.0327,0.0293,0.0264,0.028,0.0264,0.0265,0.0317,0.032,0.0316,0.0346,0.0349,0.0342,0.0344,0.0345,0.0346,0,0,0,0,0,0,0,0.0383,0.0376,0.0292,0.0297,0.0295,0.0305,0.03,0.0321,0.0302,0.0279,0.0277,0.0266,0.0317,0.0313,0.0317,0.035,0.0342,0.0344,0.0346,0.0347,0.0363,0.0362,0,0,0,0,0,0,0.0378,0.0378,0.0294,0.0291,0.0335,0.0302,0.0296,0.0278,0.0299,0.0301,0.0266,0.0266,0.0309,0.0315,0.032,0.0345,0.0345,0.0347,0.0348,0.0364,0.0363,0.0362,0,0,0,0,0,0,0.038,0.037,0.0295,0.0331,0.0322,0.0299,0.0279,0.0277,0.0274,0.0288,0.0292,0.0265,0.0309,0.0317,0.0327,0.0347,0.0348,0.035,0.0365,0.0364,0.0362,0.0386,0,0,0,0,0,0,0.0384,0.0371,0.0363,0.033,0.0319,0.0284,0.0278,0.0275,0.0264,0.0265,0.0289,0.0295,0.031,0.0323,0.0329,0.035,0.0352,0.0366,0.0364,0.0363,0.0387,0.0386,0.0385,0,0,0,0,0,0.0388,0.0372,0.0363,0.0353,0.0306,0.0284,0.0281,0.0269,0.0264,0.0268,0.0268,0.0295,0.0315,0.0324,0.0331,0.0354,0.0367,0.0365,0.0363,0.0387,0.0386,0.0385,0,0,0,0,0,0,0.0412,0.0369,0.0359,0.0329,0.0312,0.0283,0.028,0.0269,0.027,0.0273,0.0286,0.0292,0.0305,0.0315,0.0324,0.0346,0.0344,0.0344,0.036,0.0359,0.0358,0.0342,0.0354,0,0,0,0,0,0.0412,0.0393,0.0358,0.0336,0.0328,0.0305,0.0295,0.0286,0.0276,0.0277,0.0288,0.0295,0.03,0.0318,0.0322,0.0345,0.0337,0.0358,0.0357,0.0357,0.0344,0.0331,0.0329,0.0354,0.0354,0.0354,0,0,0.0414,0.0387,0.0376,0.0341,0.0326,0.0308,0.0301,0.0288,0.0278,0.0286,0.0288,0.0293,0.0299,0.0315,0.0323,0.0332,0.0348,0.0354,0.0354,0.0341,0.0329,0.0326,0.0324,0.0353,0.0353,0.0353,0,0,0.0401,0.0386,0.0366,0.0354,0.0329,0.0317,0.0312,0.029,0.0292,0.0291,0.0285,0.0294,0.0314,0.0318,0.0323,0.0317,0.0334,0.0325,0.0328,0.0317,0.0315,0.0313,0.0319,0.0317,0.0337,0.0338,0.0338,0,0.0405,0.0363,0.0359,0.0338,0.0319,0.0318,0.0292,0.0298,0.0283,0.0278,0.0296,0.0289,0.0313,0.0309,0.0313,0.0321,0.0315,0.0341,0.0318,0.0316,0.0314,0.032,0.0318,0.0338,0.0338,0.0338,0.0338,0,0.0373,0.0345,0.0335,0.0304,0.0295,0.0275,0.0273,0.0273,0.0278,0.0277,0.0277,0.0297,0.029,0.031,0.032,0.0314,0.0316,0.0313,0.0328,0.0313,0.032,0.0318,0.034,0.0339,0.0339,0.0339,0,0,0.0357,0.0316,0.0312,0.0284,0.027,0.0252,0.0252,0.0235,0.0216,0.0248,0.0222,0.0261,0.0271,0.0273,0.029,0.0299,0.0306,0.0307,0.0306,0.0325,0.0289,0.0367,0.0373,0.03,0.0299,0.0299,0.0308,0,0.0325,0.0269,0.0263,0.0217,0.0184,0.019,0.0178,0.0177,0.0188,0.0176,0.0215,0.0207,0.026,0.0257,0.0276,0.0272,0.0296,0.0304,0.0288,0.0288,0.037,0.0371,0.0406,0.0423,0.0306,0.0305,0.0305,0,0.0293,0.0249,0.0194,0.0143,0.0131,0.0114,0.0082,0.0077,0.0084,0.0092,0.011,0.0132,0.0151,0.0196,0.0218,0.0218,0.0259,0.0277,0.0278,0.0336,0.0361,0.0413,0.0424,0.0515,0.0301,0.0302,0.0302,0,0.0264,0.0206,0.0152,0.0137,0.0088,0.0067,0.0051,0.0047,0.0032,0.0039,0.0023,0.0055,0.0057,0.0101,0.0185,0.0185,0.0213,0.0212,0.0328,0.0334,0.0352,0.0362,0.0457,0.0238,0.0238,0.0238,0.0238,0,0.0228,0.0187,0.0132,0.0098,0.0039,0.0027,-0.0022,-0.0026,-0.0048,-0.0077,-0.0022,-0.0048,0.0031,0.0074,0.0149,0.0244,0.0192,0.0325,0.0339,0.0364,0.0374,0.0444,0.047,0.0239,0.0239,0.0239,0.0239,0,0.022,0.0179,0.0112,0.0042,0.0023,-0.0012,-0.0064,-0.0098,-0.0111,-0.0153,-0.0154,-0.0137,-0.0077,0.0038,0.0107,0.0197,0.0344,0.0335,0.0379,0.0399,0.0584,0.0609,0.0678,0.0751,0.0431,0.0433,0.0435,0,0.0217,0.0176,0.0084,0.0046,0.0015,-0.0039,-0.0079,-0.0117,-0.0157,-0.0211,-0.0242,-0.0194,-0.0142,0.0016,0.0185,0.0354,0.0426,0.0484,0.0498,0.0608,0.0644,0.0649,0.0705,0.053,0.0533,0.0534,0.0536,0,0.0213,0.0178,0.0122,0.0026,-0.003,-0.0086,-0.0149,-0.0198,-0.0249,-0.0293,-0.0348,-0.0312,-0.013,0.008,0.0348,0.0434,0.0559,0.0529,0.0612,0.0712,0.0748,0.082,0.0522,0.0553,0.0551,0.055,0.0549,0.0548,0.0224,0.0184,0.0099,0.0015,-0.005,-0.0123,-0.0162,-0.023,-0.03,-0.0319,-0.0357,-0.022,0.0088,0.0457,0.0516,0.0746,0.0707,0.0819,0.0834,0.0825,0.092,0.0684,0.0755,0.0754,0.0754,0.0754,0.0753,0,0.0243,0.0177,0.0095,-0.0017,-0.0086,-0.0115,-0.0201,-0.0217,-0.0279,-0.0242,-0.023,0.0181,0.0453,0.0699,0.0984,0.1062,0.1054,0.1101,0.1098,0.1138,0.0901,0.0935,0.1084,0.1084,0.1084,0.1084,0.1083,0.1083,0.0241,0.0162,0.01,-0.0023,-0.0086,-0.0156,-0.0189,-0.0182,-0.0144,0.0023,0.0262,0.0452,0.0848,0.1122,0.1301,0.1303,0.1391,0.1364,0.1423,0.1244,0.1218,0.1193,0.1233,0.1442,0.1443,0.1659,0.1661,0.1663]}],[{"header":{"parameterUnit":"m.s-1","parameterCategory":2,"la1":30.2991,"la2":30.254,"lo1":-89.0895,"lo2":-89.0444,"dy":0.0017,"dx":0.0017,"nx":28,"ny":28,"refTime":"2025-03-12T21:00:00:Z","depth":"2","parameterNumber":2,"parameterNumberName":"U-component_of_CURRENTS"},"data":[0,0,0,0,0,0,0,0,0,0,0,0,0,0,0,0,0,0,0,0,0,0,0,0,0,0,0,0,0,0,0,0,0,0,0,0,0,0,0,0,0,0,0,0,0,0,0,0,0,0,0,0,0,0,0,0,0,0,-0.2224,-0.2225,0,-0.2295,-0.2295,-0.2295,-0.2339,-0.234,-0.234,-0.2341,-0.2327,-0.2326,-0.2325,0,0,0,0,0,0,0,0,0,0,0,0,0,-0.2113,-0.2114,-0.2224,-0.2225,-0.2227,-0.2295,-0.2295,-0.2296,-0.2339,-0.234,-0.2341,-0.2342,-0.2327,-0.2326,-0.2324,0,0,0,0,0,0,0,0,0,0,0,0,0,-0.2164,-0.2115,-0.2223,-0.2261,-0.2266,-0.2295,-0.2295,-0.2296,-0.2338,-0.234,-0.2341,-0.2342,-0.2328,-0.2326,-0.2324,-0.2289,0,0,-0.2319,-0.2318,0,0,0,0,0,0,0,0,-0.2161,-0.2167,-0.2254,-0.2259,-0.2264,-0.2315,-0.2251,-0.2291,-0.2338,-0.2304,-0.2341,-0.2343,-0.2318,-0.2317,-0.232,-0.2288,-0.2288,-0.2319,-0.2318,-0.2317,-0.2317,0,0,0,0,0,0,0,-0.2157,-0.2164,-0.2245,-0.2256,-0.2262,-0.2271,-0.2279,-0.2259,-0.2296,-0.2307,-0.2312,-0.233,-0.232,-0.2321,-0.232,-0.2287,-0.2319,-0.2317,-0.2316,-0.2316,-0.2211,-0.221,0,0,0,0,0,0,-0.2161,-0.2161,-0.2243,-0.2248,-0.2222,-0.2273,-0.2281,-0.2292,-0.2299,-0.2304,-0.2329,-0.2332,-0.2324,-0.2322,-0.2319,-0.2316,-0.2317,-0.2315,-0.2314,-0.2213,-0.2211,-0.2209,0,0,0,0,0,0,-0.2158,-0.2167,-0.224,-0.2212,-0.2223,-0.2274,-0.2285,-0.2293,-0.233,-0.2318,-0.232,-0.2364,-0.2325,-0.2322,-0.2323,-0.2314,-0.2315,-0.2313,-0.2215,-0.2213,-0.221,-0.2283,0,0,0,0,0,0,-0.2155,-0.2166,-0.2179,-0.2212,-0.2225,-0.2259,-0.2285,-0.2294,-0.2341,-0.2346,-0.2347,-0.2345,-0.2325,-0.2326,-0.2321,-0.2312,-0.2312,-0.2217,-0.2214,-0.2211,-0.2283,-0.2283,-0.2284,0,0,0,0,0,-0.215,-0.2135,-0.2178,-0.2189,-0.2239,-0.226,-0.2265,-0.2302,-0.2342,-0.2343,-0.2357,-0.2347,-0.23,-0.2324,-0.2319,-0.2309,-0.2219,-0.2215,-0.2211,-0.2283,-0.2283,-0.2284,0,0,0,0,0,0,-0.2046,-0.214,-0.2188,-0.2192,-0.2237,-0.227,-0.2283,-0.2321,-0.2337,-0.2358,-0.2348,-0.2345,-0.2332,-0.2304,-0.2331,-0.226,-0.2247,-0.2243,-0.2303,-0.2304,-0.2304,-0.2259,-0.231,0,0,0,0,0,-0.2046,-0.2079,-0.2158,-0.2153,-0.2198,-0.2256,-0.2277,-0.2312,-0.2333,-0.2346,-0.2363,-0.2348,-0.2302,-0.2298,-0.2263,-0.2246,-0.22,-0.2222,-0.2223,-0.2224,-0.2178,-0.2115,-0.2107,-0.2196,-0.2196,-0.2197,0,0,-0.2008,-0.2055,-0.2077,-0.2139,-0.2189,-0.2206,-0.227,-0.2313,-0.2314,-0.2337,-0.236,-0.236,-0.2296,-0.227,-0.2258,-0.2256,-0.2181,-0.2219,-0.2221,-0.2172,-0.211,-0.2102,-0.2094,-0.2194,-0.2194,-0.2195,0,0,-0.1932,-0.2,-0.2024,-0.2061,-0.215,-0.2182,-0.2207,-0.229,-0.2329,-0.2361,-0.2351,-0.2358,-0.2335,-0.2282,-0.2244,-0.222,-0.2185,-0.2206,-0.2182,-0.2125,-0.2117,-0.211,-0.2086,-0.2076,-0.221,-0.221,-0.221,0,-0.1893,-0.192,-0.202,-0.2037,-0.2062,-0.2174,-0.2183,-0.2217,-0.2283,-0.2295,-0.2372,-0.2324,-0.2324,-0.2217,-0.222,-0.2223,-0.2188,-0.2203,-0.2129,-0.212,-0.2111,-0.2088,-0.2076,-0.2213,-0.2213,-0.2213,-0.2212,0,-0.1842,-0.1868,-0.1876,-0.1946,-0.1974,-0.1999,-0.208,-0.2129,-0.2222,-0.2248,-0.2251,-0.2278,-0.2234,-0.2246,-0.2237,-0.2148,-0.2147,-0.2145,-0.214,-0.2107,-0.2085,-0.2071,-0.2218,-0.2217,-0.2216,-0.2215,0,0,-0.1754,-0.1839,-0.184,-0.1875,-0.1943,-0.1966,-0.1976,-0.2013,-0.2028,-0.2115,-0.2115,-0.2098,-0.2147,-0.2102,-0.2109,-0.2084,-0.2056,-0.2096,-0.2091,-0.2093,-0.1943,-0.1875,-0.1854,-0.2047,-0.2044,-0.2041,-0.1971,0,-0.1703,-0.1713,-0.1761,-0.1759,-0.1794,-0.1871,-0.1868,-0.1903,-0.1973,-0.2004,-0.2033,-0.2033,-0.2073,-0.2097,-0.2067,-0.2067,-0.2012,-0.2075,-0.1951,-0.1946,-0.1908,-0.1832,-0.1723,-0.1642,-0.1957,-0.1954,-0.1953,0,-0.1658,-0.1672,-0.1674,-0.1723,-0.175,-0.1742,-0.1789,-0.1805,-0.1828,-0.1892,-0.1887,-0.1923,-0.1898,-0.1964,-0.1897,-0.1939,-0.1911,-0.1917,-0.1914,-0.1796,-0.1849,-0.1711,-0.1604,-0.1929,-0.1931,-0.1932,-0.1934,0,-0.1589,-0.1618,-0.1622,-0.1632,-0.1689,-0.1699,-0.1729,-0.1759,-0.1793,-0.1809,-0.1846,-0.181,-0.1849,-0.1794,-0.1838,-0.1857,-0.178,-0.1808,-0.1693,-0.1691,-0.1537,-0.1525,-0.1679,-0.1679,-0.1679,-0.1679,-0.1679,0,-0.1531,-0.1534,-0.1595,-0.1597,-0.1605,-0.1659,-0.1675,-0.1705,-0.1742,-0.1751,-0.1779,-0.1783,-0.1808,-0.1794,-0.1787,-0.171,-0.1726,-0.1639,-0.1638,-0.1564,-0.1555,-0.1744,-0.1753,-0.1676,-0.1677,-0.1678,-0.1678,0,-0.1466,-0.1504,-0.1518,-0.1566,-0.1582,-0.1593,-0.1661,-0.167,-0.1714,-0.1729,-0.1735,-0.1765,-0.1732,-0.1737,-0.1689,-0.1654,-0.1591,-0.1536,-0.1471,-0.1459,-0.1552,-0.1565,-0.138,-0.1376,-0.1373,-0.1371,-0.1369,0,-0.1441,-0.1439,-0.1488,-0.15,-0.1524,-0.1556,-0.1575,-0.1644,-0.166,-0.1708,-0.1702,-0.1686,-0.1644,-0.1566,-0.1487,-0.1397,-0.1474,-0.1248,-0.1228,-0.1488,-0.1507,-0.1525,-0.1542,-0.1086,-0.1082,-0.1078,-0.1075,0,-0.1381,-0.1402,-0.1414,-0.1433,-0.1458,-0.1482,-0.1519,-0.1533,-0.1604,-0.1612,-0.16,-0.1568,-0.1478,-0.133,-0.1228,-0.1169,-0.1263,-0.1169,-0.1419,-0.1179,-0.1204,-0.1226,-0.1253,-0.1044,-0.1047,-0.1049,-0.1051,-0.1052,-0.1337,-0.1331,-0.1347,-0.1357,-0.1382,-0.1383,-0.137,-0.1415,-0.1421,-0.1416,-0.1461,-0.1378,-0.1321,-0.1082,-0.0984,-0.0903,-0.0984,-0.0951,-0.0965,-0.0981,-0.096,-0.0977,-0.0773,-0.0775,-0.0776,-0.0777,-0.0778,0,-0.1267,-0.1265,-0.127,-0.1272,-0.1247,-0.1293,-0.1304,-0.127,-0.1237,-0.126,-0.1235,-0.1073,-0.0937,-0.088,-0.0681,-0.0615,-0.0637,-0.0599,-0.0641,-0.0672,-0.0699,-0.0667,-0.04,-0.0399,-0.0398,-0.0397,0,0,-0.1235,-0.1201,-0.1194,-0.1124,-0.1122,-0.1053,-0.1033,-0.1009,-0.1001,-0.0948,-0.0914,-0.0965,-0.0903,-0.0695,-0.0596,-0.047,-0.0583,-0.0443,-0.0746,-0.0832,-0.0859,-0.0896,-0.0878,0,0,0,0,0]},{"header":{"parameterUnit":"m.s-1","parameterCategory":2,"la1":30.2991,"la2":30.254,"lo1":-89.0895,"lo2":-89.0444,"dy":0.0017,"dx":0.0017,"nx":28,"ny":28,"refTime":"2025-03-12T21:00:00:Z","depth":"2","parameterNumber":3,"parameterNumberName":"V-component_of_CURRENTS"},"data":[0,0,0,0,0,0,0,0,0,0,0,0,0,0,0,0,0,0,0,0,0,0,0,0,0,0,0,0,0,0,0,0,0,0,0,0,0,0,0,0,0,0,0,0,0,0,0,0,0,0,0,0,0,0,0,0,0,0,-0.0443,-0.0442,0,-0.035,-0.0349,-0.0347,-0.0306,-0.0306,-0.0306,-0.0307,-0.0188,-0.0185,-0.0182,0,0,0,0,0,0,0,0,0,0,0,0,0,-0.0455,-0.0456,-0.0443,-0.0442,-0.0441,-0.035,-0.0349,-0.0347,-0.0305,-0.0306,-0.0306,-0.0307,-0.019,-0.0185,-0.0181,0,0,0,0,0,0,0,0,0,0,0,0,0,-0.0412,-0.0456,-0.0443,-0.0412,-0.0409,-0.0351,-0.0349,-0.0347,-0.0305,-0.0306,-0.0307,-0.0307,-0.0191,-0.0186,-0.0181,-0.0136,0,0,-0.0164,-0.0162,0,0,0,0,0,0,0,0,-0.0415,-0.0411,-0.0418,-0.0414,-0.041,-0.0343,-0.031,-0.0276,-0.0305,-0.0341,-0.0307,-0.0307,-0.0239,-0.023,-0.0207,-0.013,-0.0125,-0.0164,-0.0161,-0.0158,-0.0157,0,0,0,0,0,0,0,-0.0418,-0.0414,-0.0403,-0.0417,-0.0412,-0.0358,-0.0354,-0.0302,-0.0285,-0.0338,-0.0336,-0.033,-0.0237,-0.0212,-0.0204,-0.0123,-0.0164,-0.0159,-0.0156,-0.0154,0.0045,0.0047,0,0,0,0,0,0,-0.0442,-0.0418,-0.0406,-0.0401,-0.0418,-0.0359,-0.0353,-0.0361,-0.0286,-0.0276,-0.033,-0.0329,-0.0221,-0.021,-0.02,-0.0127,-0.0159,-0.0154,-0.0151,0.0043,0.0045,0.0047,0,0,0,0,0,0,-0.0443,-0.0443,-0.041,-0.0409,-0.0401,-0.0359,-0.0367,-0.0359,-0.0336,-0.0281,-0.027,-0.0316,-0.0221,-0.0207,-0.0133,-0.0123,-0.0151,-0.0146,0.004,0.0043,0.0046,0.0009,0,0,0,0,0,0,-0.0444,-0.0444,-0.0453,-0.0411,-0.0402,-0.0391,-0.0367,-0.0357,-0.0333,-0.0331,-0.0265,-0.0255,-0.022,-0.0141,-0.0127,-0.0116,-0.0142,0.0037,0.0042,0.0045,0.0008,0.0011,0.0013,0,0,0,0,0,-0.0445,-0.0462,-0.0454,-0.0452,-0.0419,-0.0392,-0.0382,-0.035,-0.0332,-0.0329,-0.026,-0.0257,-0.0107,-0.0134,-0.0119,-0.0106,0.0036,0.004,0.0045,0.0007,0.001,0.0013,0,0,0,0,0,0,-0.0469,-0.0459,-0.0449,-0.0462,-0.0435,-0.0386,-0.0381,-0.035,-0.0292,-0.0285,-0.0226,-0.0209,-0.0138,-0.0107,-0.0139,-0.0032,-0.0036,-0.0029,-0.0071,-0.0067,-0.0064,-0.011,-0.0138,0,0,0,0,0,-0.048,-0.0491,-0.0466,-0.0472,-0.0468,-0.0421,-0.0403,-0.038,-0.0327,-0.0303,-0.0242,-0.0173,-0.0105,-0.0077,-0.0013,0.0042,0.0049,0.0063,0.0066,0.0068,0.0045,0.0066,0.0066,0.0063,0.0063,0.0063,0,0,-0.0488,-0.0484,-0.0489,-0.0478,-0.0456,-0.0444,-0.0412,-0.0393,-0.0369,-0.0297,-0.0232,-0.0158,-0.0083,-0.0014,0.0018,0.0008,0.0081,0.0074,0.0074,0.005,0.007,0.007,0.0069,0.0066,0.0066,0.0065,0,0,-0.0504,-0.0513,-0.0523,-0.0509,-0.0486,-0.0461,-0.0459,-0.0404,-0.0373,-0.0298,-0.0232,-0.0152,-0.0051,0.0005,0.0045,0.0103,0.0102,0.0127,0.0091,0.0112,0.0111,0.011,0.0139,0.0141,0.0118,0.0118,0.0118,0,-0.0511,-0.0522,-0.0517,-0.0518,-0.0508,-0.0474,-0.0469,-0.0433,-0.0349,-0.0318,-0.0286,-0.0118,-0.0045,0.0026,0.0059,0.0103,0.0112,0.0065,0.011,0.0109,0.0108,0.0138,0.0141,0.0117,0.0117,0.0117,0.0117,0,-0.0525,-0.0533,-0.054,-0.0535,-0.0525,-0.0517,-0.0482,-0.0447,-0.0395,-0.0347,-0.0256,-0.0145,-0.0058,-0.0007,0.0048,0.009,0.0099,0.0112,0.0084,0.0105,0.0138,0.0141,0.0115,0.0116,0.0116,0.0116,0,0,-0.054,-0.0548,-0.0548,-0.0553,-0.0534,-0.0528,-0.05,-0.0464,-0.0439,-0.0353,-0.0306,-0.0169,-0.0122,-0.0072,0.0006,0.0037,0.0075,0.0067,0.0069,0.0066,0.0119,0.0136,0.0142,0.0082,0.0082,0.0082,0.0149,0,-0.0547,-0.0561,-0.0556,-0.0562,-0.0571,-0.0542,-0.0521,-0.0484,-0.0428,-0.0371,-0.0286,-0.0205,-0.0148,-0.0091,-0.0057,0.0062,0.0077,0.0055,0.0125,0.0128,0.0114,0.0143,0.0144,0.0204,0.0152,0.0153,0.0153,0,-0.0561,-0.057,-0.0583,-0.0586,-0.0587,-0.0582,-0.0554,-0.0526,-0.0461,-0.0413,-0.0353,-0.028,-0.0191,-0.0152,-0.0028,-0.0048,0.0018,0.0087,0.0091,0.0111,0.0149,0.0176,0.0211,0.0158,0.0157,0.0157,0.0157,0,-0.0586,-0.0591,-0.0605,-0.0605,-0.06,-0.0596,-0.0586,-0.0539,-0.0515,-0.0446,-0.0408,-0.0324,-0.0243,-0.0177,-0.0022,-0.0029,0.0105,0.0114,0.0176,0.0179,0.0195,0.0198,0.0154,0.0154,0.0154,0.0154,0.0154,0,-0.0606,-0.0618,-0.0621,-0.0631,-0.0647,-0.0628,-0.0627,-0.0598,-0.0549,-0.0519,-0.044,-0.038,-0.0248,-0.0145,-0.0048,0.0085,0.0078,0.0165,0.0192,0.0188,0.0191,0.0157,0.0156,0.0156,0.0156,0.0155,0.0155,0,-0.0639,-0.0638,-0.0661,-0.0663,-0.0666,-0.068,-0.0674,-0.0666,-0.061,-0.0565,-0.0544,-0.0411,-0.0271,-0.0147,0.0012,0.0076,0.0189,0.0224,0.0218,0.0243,0.025,0.0247,0.0289,0.029,0.0291,0.0291,0.0292,0,-0.0662,-0.0677,-0.0697,-0.072,-0.0726,-0.074,-0.0749,-0.0708,-0.0692,-0.0573,-0.055,-0.0403,-0.0279,-0.0048,0.0085,0.0227,0.0225,0.0298,0.0279,0.0238,0.0261,0.0257,0.0253,0.0303,0.0303,0.0304,0.0304,0,-0.0705,-0.0709,-0.0729,-0.0776,-0.0801,-0.0819,-0.082,-0.0817,-0.0746,-0.068,-0.0551,-0.0436,-0.0202,-0.0011,0.0169,0.0247,0.0275,0.0313,0.0281,0.0261,0.0255,0.0276,0.0272,0.0309,0.0309,0.0308,0.0308,0.0308,-0.0738,-0.0765,-0.0792,-0.0835,-0.0868,-0.0889,-0.0895,-0.0866,-0.082,-0.0693,-0.0571,-0.036,-0.0175,0.0103,0.0224,0.0327,0.0316,0.035,0.0347,0.0344,0.0326,0.0321,0.0385,0.0385,0.0385,0.0385,0.0385,0,-0.0774,-0.0801,-0.0849,-0.0896,-0.0935,-0.0934,-0.0933,-0.0904,-0.0838,-0.0676,-0.0528,-0.0284,-0.0063,0.012,0.029,0.0383,0.0371,0.0398,0.0371,0.0366,0.0362,0.0343,0.0408,0.0408,0.0408,0.0408,0,0,-0.0795,-0.0842,-0.0863,-0.0938,-0.0972,-0.0992,-0.0986,-0.0916,-0.0797,-0.0621,-0.0444,-0.0249,-0.0012,0.0107,0.0233,0.0331,0.0317,0.0335,0.0311,0.0259,0.0253,0.0332,0.0299,0,0,0,0,0]}],[{"header":{"parameterUnit":"m.s-1","parameterCategory":2,"la1":30.2991,"la2":30.254,"lo1":-89.0895,"lo2":-89.0444,"dy":0.0017,"dx":0.0017,"nx":28,"ny":28,"refTime":"2025-03-12T21:00:00:Z","depth":"4","parameterNumber":2,"parameterNumberName":"U-component_of_CURRENTS"},"data":[0,0,0,0,0,0,0,0,0,0,0,0,0,0,0,0,0,0,0,0,0,0,0,0,0,0,0,0,0,0,0,0,0,0,0,0,0,0,0,0,0,0,0,0,0,0,0,0,0,0,0,0,0,0,0,0,0,0,-0.1066,-0.1067,0,-0.1088,-0.1088,-0.1088,-0.1099,-0.11,-0.11,-0.11,-0.1105,-0.1105,-0.1105,0,0,0,0,0,0,0,0,0,0,0,0,0,-0.1013,-0.1014,-0.1066,-0.1067,-0.1067,-0.1088,-0.1088,-0.1088,-0.1099,-0.11,-0.11,-0.11,-0.1105,-0.1105,-0.1105,0,0,0,0,0,0,0,0,0,0,0,0,0,-0.1034,-0.1015,-0.1066,-0.1076,-0.1078,-0.1088,-0.1088,-0.1088,-0.1099,-0.11,-0.11,-0.11,-0.1105,-0.1105,-0.1105,-0.1101,0,0,-0.1105,-0.1105,0,0,0,0,0,0,0,0,-0.1033,-0.1036,-0.1075,-0.1076,-0.1077,-0.1092,-0.1071,-0.1092,-0.1099,-0.109,-0.11,-0.11,-0.11,-0.1101,-0.1103,-0.1101,-0.1101,-0.1105,-0.1106,-0.1106,-0.1106,0,0,0,0,0,0,0,-0.1032,-0.1035,-0.1073,-0.1075,-0.1077,-0.1072,-0.1076,-0.1075,-0.1092,-0.1091,-0.1092,-0.1096,-0.1101,-0.1103,-0.1103,-0.1102,-0.1105,-0.1106,-0.1106,-0.1106,-0.112,-0.112,0,0,0,0,0,0,-0.1033,-0.1034,-0.1073,-0.1074,-0.1057,-0.1073,-0.1077,-0.1086,-0.1092,-0.1094,-0.1096,-0.1097,-0.1102,-0.1103,-0.1103,-0.1136,-0.1106,-0.1106,-0.1106,-0.112,-0.112,-0.112,0,0,0,0,0,0,-0.1032,-0.1036,-0.1072,-0.1055,-0.106,-0.1074,-0.1084,-0.1086,-0.1107,-0.1097,-0.1098,-0.1117,-0.1103,-0.1103,-0.1116,-0.1135,-0.1106,-0.1106,-0.1119,-0.112,-0.112,-0.1179,0,0,0,0,0,0,-0.103,-0.1036,-0.1051,-0.1056,-0.1061,-0.1092,-0.1084,-0.1087,-0.1109,-0.1111,-0.1115,-0.1115,-0.1103,-0.1116,-0.1116,-0.1135,-0.1106,-0.1119,-0.1119,-0.112,-0.1176,-0.1181,-0.1185,0,0,0,0,0,-0.1028,-0.1046,-0.1052,-0.1057,-0.1079,-0.1093,-0.1096,-0.1105,-0.111,-0.1124,-0.1125,-0.1116,-0.1121,-0.1117,-0.1117,-0.1136,-0.1118,-0.1119,-0.112,-0.1174,-0.118,-0.1185,0,0,0,0,0,0,-0.1033,-0.105,-0.1056,-0.1079,-0.1092,-0.1096,-0.1112,-0.1118,-0.113,-0.1136,-0.1125,-0.1124,-0.1138,-0.1129,-0.1125,-0.1139,-0.1116,-0.1117,-0.1158,-0.1163,-0.1168,-0.1185,-0.1106,0,0,0,0,0,-0.1041,-0.106,-0.1072,-0.1093,-0.1102,-0.1111,-0.1122,-0.1129,-0.1136,-0.1143,-0.1146,-0.1144,-0.1138,-0.1146,-0.1137,-0.1154,-0.1145,-0.1163,-0.1168,-0.1172,-0.1184,-0.1194,-0.1201,-0.1123,-0.1123,-0.1123,0,0,-0.1047,-0.1061,-0.1072,-0.1096,-0.1107,-0.1121,-0.1119,-0.1143,-0.1159,-0.1141,-0.1169,-0.1159,-0.1143,-0.1155,-0.1161,-0.1155,-0.1185,-0.1173,-0.1177,-0.1187,-0.1196,-0.1203,-0.121,-0.1124,-0.1124,-0.1124,0,0,-0.1061,-0.1085,-0.1101,-0.1116,-0.1139,-0.1145,-0.1157,-0.1173,-0.1188,-0.1205,-0.1194,-0.1206,-0.1199,-0.12,-0.1195,-0.1222,-0.1202,-0.1213,-0.1261,-0.1271,-0.1278,-0.1284,-0.1267,-0.1271,-0.1223,-0.1224,-0.1224,0,-0.1069,-0.1091,-0.1108,-0.1126,-0.1143,-0.1158,-0.1177,-0.1192,-0.1212,-0.123,-0.122,-0.1231,-0.122,-0.1242,-0.1247,-0.1235,-0.1226,-0.1244,-0.1279,-0.1285,-0.129,-0.1271,-0.1275,-0.1226,-0.1226,-0.1226,-0.1226,0,-0.1084,-0.1111,-0.1124,-0.1151,-0.1173,-0.1195,-0.1215,-0.1243,-0.1258,-0.127,-0.1302,-0.1293,-0.1302,-0.1298,-0.1279,-0.1314,-0.129,-0.1278,-0.127,-0.1302,-0.1279,-0.1282,-0.1231,-0.123,-0.1229,-0.1228,0,0,-0.1074,-0.1124,-0.1131,-0.1153,-0.1191,-0.1208,-0.1246,-0.1282,-0.1312,-0.1334,-0.137,-0.1372,-0.138,-0.1375,-0.1365,-0.138,-0.1399,-0.1351,-0.135,-0.1342,-0.1404,-0.1293,-0.1285,-0.1397,-0.1398,-0.1399,-0.1368,0,-0.1081,-0.1119,-0.1146,-0.1188,-0.1207,-0.1244,-0.1276,-0.1315,-0.1342,-0.1379,-0.1398,-0.1416,-0.1406,-0.1411,-0.143,-0.1403,-0.1412,-0.1407,-0.1367,-0.1365,-0.127,-0.1287,-0.1403,-0.137,-0.1371,-0.1371,-0.1371,0,-0.1079,-0.1109,-0.1147,-0.1209,-0.1223,-0.1252,-0.1317,-0.1349,-0.1405,-0.1426,-0.1467,-0.1472,-0.1505,-0.148,-0.1487,-0.1484,-0.1453,-0.1432,-0.143,-0.1312,-0.1261,-0.1333,-0.1377,-0.1376,-0.1376,-0.1375,-0.1375,0,-0.105,-0.1111,-0.1146,-0.1165,-0.123,-0.1266,-0.1306,-0.1366,-0.1398,-0.1459,-0.1478,-0.1524,-0.1532,-0.1529,-0.149,-0.1492,-0.1475,-0.1467,-0.1341,-0.1332,-0.1417,-0.1411,-0.147,-0.147,-0.147,-0.147,-0.1471,0,-0.1033,-0.1066,-0.1139,-0.1155,-0.1204,-0.1259,-0.1314,-0.136,-0.142,-0.1449,-0.1502,-0.1515,-0.1545,-0.1536,-0.1506,-0.1424,-0.1488,-0.135,-0.1321,-0.1438,-0.1435,-0.1418,-0.1412,-0.1469,-0.1469,-0.147,-0.147,0,-0.0988,-0.1035,-0.1079,-0.1159,-0.1188,-0.1223,-0.131,-0.134,-0.1407,-0.1445,-0.1462,-0.1513,-0.1493,-0.1494,-0.147,-0.1418,-0.1365,-0.1316,-0.1427,-0.1405,-0.1211,-0.1209,-0.1181,-0.1176,-0.1173,-0.117,-0.1168,0,-0.0964,-0.0981,-0.107,-0.1092,-0.1131,-0.1194,-0.1229,-0.1318,-0.1344,-0.1423,-0.1423,-0.1439,-0.1453,-0.1332,-0.1349,-0.1283,-0.1261,-0.123,-0.124,-0.1209,-0.1185,-0.1188,-0.119,-0.1162,-0.1161,-0.116,-0.116,0,-0.0916,-0.0955,-0.0988,-0.1034,-0.1077,-0.1124,-0.1183,-0.1194,-0.1281,-0.1358,-0.1337,-0.1315,-0.1284,-0.1255,-0.1203,-0.1162,-0.1256,-0.1194,-0.1202,-0.1211,-0.1186,-0.1166,-0.1173,-0.1148,-0.1149,-0.115,-0.1151,0,-0.0878,-0.0889,-0.0932,-0.0962,-0.1009,-0.1024,-0.1076,-0.1098,-0.1136,-0.1226,-0.1213,-0.1228,-0.1273,-0.119,-0.1148,-0.1092,-0.1075,-0.1042,-0.1057,-0.1071,-0.1047,-0.1001,-0.0881,0,0,0,0,0,-0.0835,-0.0834,-0.0855,-0.0879,-0.0916,-0.0943,-0.1024,-0.1076,-0.1165,-0.1114,-0.116,-0.1124,-0.1065,-0.1077,-0.099,-0.1086,-0.1075,-0.0982,-0.1046,-0.1081,-0.1095,-0.1076,0,0,0,0,0,0,-0.0805,-0.0824,-0.0826,-0.0792,-0.0786,-0.0823,-0.0867,-0.0935,-0.0918,-0.1008,-0.0978,-0.1043,-0.0997,-0.108,-0.0959,-0.096,-0.0975,-0.0997,-0.0993,-0.1074,-0.1086,-0.1097,-0.1082,0,0,0,0,0]},{"header":{"parameterUnit":"m.s-1","parameterCategory":2,"la1":30.2991,"la2":30.254,"lo1":-89.0895,"lo2":-89.0444,"dy":0.0017,"dx":0.0017,"nx":28,"ny":28,"refTime":"2025-03-12T21:00:00:Z","depth":"4","parameterNumber":3,"parameterNumberName":"V-component_of_CURRENTS"},"data":[0,0,0,0,0,0,0,0,0,0,0,0,0,0,0,0,0,0,0,0,0,0,0,0,0,0,0,0,0,0,0,0,0,0,0,0,0,0,0,0,0,0,0,0,0,0,0,0,0,0,0,0,0,0,0,0,0,0,-0.0304,-0.0304,0,-0.0284,-0.0283,-0.0283,-0.0251,-0.025,-0.025,-0.0249,-0.0208,-0.0207,-0.0206,0,0,0,0,0,0,0,0,0,0,0,0,0,-0.027,-0.0271,-0.0304,-0.0304,-0.0304,-0.0284,-0.0283,-0.0283,-0.0251,-0.025,-0.025,-0.0249,-0.0208,-0.0207,-0.0206,0,0,0,0,0,0,0,0,0,0,0,0,0,-0.027,-0.0272,-0.0304,-0.0287,-0.0285,-0.0284,-0.0283,-0.0283,-0.0251,-0.025,-0.025,-0.0249,-0.0208,-0.0207,-0.0206,-0.0212,0,0,-0.0203,-0.0202,0,0,0,0,0,0,0,0,-0.027,-0.0271,-0.0289,-0.0288,-0.0286,-0.0271,-0.0256,-0.0259,-0.0251,-0.0262,-0.0249,-0.0249,-0.0229,-0.0226,-0.0221,-0.021,-0.0209,-0.0203,-0.0202,-0.0202,-0.0201,0,0,0,0,0,0,0,-0.027,-0.0271,-0.0294,-0.0289,-0.0287,-0.0265,-0.0264,-0.0256,-0.0247,-0.0261,-0.0259,-0.026,-0.0227,-0.0222,-0.022,-0.0208,-0.0203,-0.0202,-0.0201,-0.0201,-0.0191,-0.0192,0,0,0,0,0,0,-0.0279,-0.0272,-0.0295,-0.0294,-0.0278,-0.0266,-0.0265,-0.0275,-0.0248,-0.0244,-0.026,-0.0258,-0.0224,-0.0221,-0.0218,-0.022,-0.0202,-0.0201,-0.02,-0.0191,-0.0191,-0.0192,0,0,0,0,0,0,-0.0279,-0.0282,-0.0296,-0.0283,-0.0283,-0.0268,-0.0278,-0.0275,-0.0274,-0.0248,-0.0243,-0.0264,-0.0224,-0.022,-0.0215,-0.0218,-0.02,-0.0199,-0.019,-0.0191,-0.0192,-0.0225,0,0,0,0,0,0,-0.0278,-0.0282,-0.0293,-0.0284,-0.0284,-0.0304,-0.0279,-0.0275,-0.0276,-0.0273,-0.0249,-0.0244,-0.0223,-0.0217,-0.0214,-0.0216,-0.0198,-0.019,-0.0191,-0.0191,-0.0224,-0.0227,-0.023,0,0,0,0,0,-0.0277,-0.0293,-0.0294,-0.0296,-0.03,-0.0305,-0.0304,-0.0288,-0.0277,-0.0284,-0.0263,-0.0245,-0.0219,-0.0216,-0.0213,-0.0215,-0.019,-0.019,-0.0191,-0.0222,-0.0226,-0.023,0,0,0,0,0,0,-0.0284,-0.0292,-0.0291,-0.031,-0.0313,-0.0301,-0.0305,-0.0297,-0.0286,-0.0282,-0.0254,-0.0248,-0.0246,-0.0229,-0.0227,-0.0214,-0.02,-0.02,-0.0225,-0.0229,-0.0232,-0.0215,-0.0198,0,0,0,0,0,-0.0293,-0.0307,-0.031,-0.0326,-0.033,-0.032,-0.0321,-0.0314,-0.0304,-0.0298,-0.0283,-0.0263,-0.0247,-0.0237,-0.0226,-0.0221,-0.0183,-0.022,-0.0223,-0.0225,-0.0209,-0.0144,-0.0139,-0.0195,-0.0195,-0.0195,0,0,-0.0299,-0.0306,-0.0313,-0.0328,-0.0328,-0.0333,-0.0319,-0.0327,-0.0324,-0.0296,-0.0291,-0.028,-0.0251,-0.0244,-0.0241,-0.0228,-0.0197,-0.0226,-0.0229,-0.0211,-0.0144,-0.0138,-0.0133,-0.0195,-0.0195,-0.0195,0,0,-0.0313,-0.0328,-0.0341,-0.0347,-0.0355,-0.035,-0.0356,-0.0354,-0.0347,-0.0349,-0.0322,-0.0306,-0.0297,-0.0263,-0.0246,-0.0259,-0.0221,-0.0268,-0.0261,-0.0198,-0.0192,-0.0187,-0.0162,-0.0153,-0.0261,-0.0261,-0.0261,0,-0.032,-0.0339,-0.0345,-0.0357,-0.0362,-0.0359,-0.037,-0.0363,-0.0358,-0.0349,-0.0354,-0.0312,-0.0297,-0.0256,-0.0262,-0.0263,-0.0235,-0.025,-0.02,-0.0193,-0.0187,-0.0162,-0.0152,-0.0263,-0.0263,-0.0263,-0.0263,0,-0.0338,-0.0354,-0.0364,-0.0377,-0.0383,-0.0397,-0.0392,-0.0394,-0.0391,-0.0377,-0.0357,-0.033,-0.0297,-0.0297,-0.0285,-0.0235,-0.0235,-0.0217,-0.0187,-0.0183,-0.0158,-0.0147,-0.0266,-0.0265,-0.0265,-0.0264,0,0,-0.0353,-0.0373,-0.0377,-0.039,-0.0398,-0.0409,-0.0403,-0.0397,-0.0388,-0.0377,-0.0354,-0.0325,-0.0306,-0.0284,-0.0262,-0.021,-0.016,-0.0198,-0.0194,-0.0168,-0.0045,-0.007,-0.0061,-0.0131,-0.0129,-0.0127,-0.0058,0,-0.0368,-0.0394,-0.0395,-0.0419,-0.0436,-0.043,-0.0427,-0.0417,-0.0404,-0.0384,-0.0338,-0.0316,-0.0301,-0.0289,-0.0232,-0.0175,-0.0128,-0.0181,-0.0057,-0.0054,-0.0071,-0.0047,-0.0119,-0.0049,-0.0047,-0.0045,-0.0044,0,-0.0387,-0.0404,-0.043,-0.0449,-0.0455,-0.0463,-0.0459,-0.0454,-0.0413,-0.0401,-0.0352,-0.0321,-0.0247,-0.0241,-0.0112,-0.0148,-0.0098,-0.0054,-0.005,-0.0045,-0.0057,-0.0047,-0.0023,-0.0025,-0.0026,-0.0028,-0.0029,0,-0.0407,-0.0432,-0.0455,-0.0463,-0.0476,-0.0483,-0.0486,-0.0461,-0.0456,-0.0405,-0.0391,-0.0299,-0.0255,-0.0162,-0.0079,-0.0089,0.0055,0.0057,0.0082,0.0079,0.0095,0.0089,0.0155,0.0155,0.0155,0.0155,0.0154,0,-0.0427,-0.045,-0.047,-0.0486,-0.0516,-0.0512,-0.0525,-0.0511,-0.0481,-0.0464,-0.04,-0.0353,-0.0229,-0.014,-0.0067,0.0039,0.0072,0.0095,0.011,0.0072,0.0063,0.0101,0.0094,0.0157,0.0157,0.0156,0.0156,0,-0.0449,-0.0459,-0.0495,-0.0518,-0.053,-0.0552,-0.0569,-0.0571,-0.0535,-0.0506,-0.049,-0.0378,-0.0253,-0.0147,0.0006,0.0051,0.0152,0.0177,0.0109,0.0115,0.0126,0.0116,0.0222,0.0222,0.0222,0.0222,0.0222,0,-0.0462,-0.0482,-0.0527,-0.0555,-0.0572,-0.0603,-0.0623,-0.0606,-0.0599,-0.0516,-0.0497,-0.0373,-0.0293,-0.009,0.0018,0.0156,0.0168,0.0203,0.0188,0.0137,0.0141,0.013,0.0121,0.0222,0.0222,0.0222,0.0222,0,-0.0488,-0.0506,-0.0534,-0.0593,-0.0629,-0.0663,-0.0683,-0.068,-0.0639,-0.0606,-0.0482,-0.0368,-0.023,-0.0076,0.0024,0.0122,0.0176,0.0204,0.0204,0.0191,0.0139,0.0139,0.013,0.0222,0.0222,0.0222,0.0222,0,-0.0509,-0.0537,-0.0576,-0.0625,-0.0676,-0.0706,-0.0713,-0.0683,-0.0662,-0.0562,-0.0513,-0.0354,-0.0249,-0.0094,0.0005,0.0094,0.0114,0.0128,0.0133,0.0134,0.0082,0.0002,0.0071,0,0,0,0,0,-0.0524,-0.0555,-0.0606,-0.0656,-0.0707,-0.073,-0.0745,-0.0736,-0.069,-0.0606,-0.0557,-0.0423,-0.0235,-0.0138,-0.0051,-0.0022,0.0102,0.0079,0.0113,0.0223,0.0223,0.0174,0,0,0,0,0,0,-0.0535,-0.0583,-0.0605,-0.0669,-0.0707,-0.0753,-0.0762,-0.0732,-0.0674,-0.0606,-0.0495,-0.0418,-0.0233,-0.028,-0.0049,-0.0021,0.0006,0.0176,0.0177,0.0223,0.0223,0.0223,0.0173,0,0,0,0,0]}]]